Location: Unspecified
(0.0000°N, 0.0000°E)
Time: 05:28:24
(UTC+00:00)

METEOR M2 - Pass Details

Date: 04 July 2020
Orbit: 818 x 828 km, 98.5° (Epoch: 13 August)

Event Time Altitude Azimuth Distance (km) Brightness Sun altitude
Exits shadow 20:50:44 24° 262° (W) 1,653 ? -37.7°
Drops below altitude 10° 20:54:42 10° 310° (NW) 2,421 ? -38.5°
Sets 20:57:29 0° 323° (NW) 3,352 ? -39.2°
